AJ7E Weather Reports


time (UTC)temp
C
wind
direction
speed
KPH
gust
KPH
rain 1hr
cm
rain 24hr
cm
rain mn
cm
humidity
%
barometer
mb
20260503050035 11 263 0.0 11.3 0.03 0.13 0.13 58 1011.2
20260503044535 11 238 0.0 0.0 0.03 0.13 0.13 59 1011.3
20260503043041 11 59 1.6 12.9 0.03 0.13 0.13 59 1010.6
20260503041533 11 63 6.4 14.5 0.03 0.13 0.13 60 1010.8
20260503040029 11 96 8.0 17.7 0.00 0.10 0.10 56 1010.9
20260503034528 11 69 0.0 11.3 0.00 0.10 0.10 59 1011.2
20260503033033 12 109 0.0 11.3 0.00 0.10 0.10 57 1010.8
20260503031527 12 146 0.0 9.7 0.00 0.10 0.10 53 1010.1
20260503030026 12 360 1.6 14.5 0.00 0.10 0.10 53 1009.6
20260503024528 12 322 12.9 25.7 0.00 0.10 0.10 54 1009.7
20260503023026 12 325 11.3 20.9 0.00 0.10 0.10 55 1009.5
20260503021538 12 329 9.7 19.3 0.03 0.10 0.10 52 1009.4
20260503020023 12 5 9.7 20.9 0.05 0.10 0.10 52 1009.4
20260503014522 12 5 8.0 22.5 0.08 0.10 0.10 53 1009.1
20260503013121 12 355 8.0 19.3 0.08 0.10 0.10 56 1009.4
20260503011517 12 355 8.0 16.1 0.05 0.08 0.08 55 1009.6
20260503010016 14 316 0.0 19.3 0.03 0.05 0.05 51 1010.0
20260503004514 16 119 9.7 24.1 0.03 0.03 0.03 37 1010.0
20260503003015 16 40 12.9 32.2 0.03 0.03 0.03 35 1008.8
20260503001627 15 28 4.8 17.7 0.03 0.03 0.03 40 1008.3
20260503000011 16 348 6.4 19.3 0.03 0.03 0.03 37 1008.3
20260502234510 18 342 6.4 19.3 0.00 0.00 0.00 23 1007.9
20260502233010 18 314 9.7 29.0 0.00 0.00 0.00 22 1007.5
20260502231513 20 330 12.9 24.1 0.00 0.00 0.00 21 1007.7
20260502230005 20 321 11.3 29.0 0.00 0.00 0.00 20 1007.8
20260502224503 21 277 6.4 12.9 0.00 0.00 0.00 16 1008.0
20260502223005 21 190 6.4 25.7 0.00 0.00 0.00 13 1007.9
20260502221600 21 184 4.8 19.3 0.00 0.00 0.00 13 1008.0
20260502221503 21 184 1.6 19.3 0.00 0.00 0.00 13 1008.0
20260502220058 21 178 9.7 27.4 0.00 0.00 0.00 12 1008.1
20260502220002 21 171 8.0 27.4 0.00 0.00 0.00 12 1008.1
20260502214559 21 108 6.4 19.3 0.00 0.00 0.00 14 1008.5
20260502213106 21 158 11.3 22.5 0.00 0.00 0.00 14 1008.7
20260502211555 21 155 8.0 12.9 0.00 0.00 0.00 15 1008.8
20260502210055 21 148 1.6 11.3 0.00 0.00 0.00 15 1008.9
20260502204555 21 182 6.4 14.5 0.00 0.00 0.00 14 1009.1
20260502203053 21 143 4.8 11.3 0.00 0.00 0.00 13 1009.1
20260502201547 22 182 4.8 20.9 0.00 0.00 0.00 13 1009.1
20260502200107 22 190 9.7 24.1 0.00 0.00 0.00 12 1009.1
20260502194604 22 198 12.9 24.1 0.00 0.00 0.00 12 1009.2
20260502193047 22 128 9.7 22.5 0.00 0.00 0.00 12 1009.3
20260502191553 22 169 3.2 25.7 0.00 0.00 0.00 12 1009.4
20260502190044 22 129 11.3 29.0 0.00 0.00 0.00 12 1009.7
20260502184540 22 167 8.0 20.9 0.00 0.00 0.00 13 1009.8
20260502183046 22 136 1.6 11.3 0.00 0.00 0.00 13 1010.1
20260502181534 21 122 6.4 17.7 0.00 0.00 0.00 13 1010.3
20260502163021 19 95 0.0 11.3 0.00 0.00 0.00 17 1010.6
20260502161511 18 190 0.0 6.4 0.00 0.00 0.00 17 1010.6
20260502151610 13 143 0.0 0.0 0.00 0.00 0.00 31 1010.7
20260502150127 12 155 0.0 0.0 0.00 0.00 0.00 35 1010.7
20260502123027 7 225 0.0 0.0 0.00 0.00 0.00 36 1010.1
20260502121526 7 225 0.0 0.0 0.00 0.00 0.00 36 1010.1
20260502114522 8 225 0.0 0.0 0.00 0.00 0.00 32 1010.1
20260502113020 8 225 0.0 0.0 0.00 0.00 0.00 31 1010.2
20260502111519 8 217 0.0 0.0 0.00 0.00 0.00 29 1010.2
20260502110016 8 217 0.0 0.0 0.00 0.00 0.00 28 1010.2
20260502104513 9 216 0.0 0.0 0.00 0.00 0.00 26 1010.3
20260502103033 9 297 0.0 0.0 0.00 0.00 0.00 25 1010.2
20260502101509 9 297 0.0 0.0 0.00 0.00 0.00 25 1010.1
20260502091502 10 297 0.0 0.0 0.00 0.00 0.00 21 1010.7
20260502090109 11 297 0.0 0.0 0.00 0.00 0.00 20 1010.9
20260502070036 12 282 0.0 0.0 0.00 0.00 0.00 12 1011.5
20260502064537 13 292 0.0 0.0 0.00 0.00 0.00 12 1011.5
20260502063037 13 244 0.0 0.0 0.00 0.00 0.00 11 1011.4
20260502061527 13 334 0.0 0.0 0.00 0.00 0.00 10 1011.5
20260502060023 14 330 0.0 0.0 0.00 0.00 0.00 10 1011.5
20260502054517 15 355 0.0 0.0 0.00 0.00 0.00 9 1011.6
20260502053015 15 247 0.0 0.0 0.00 0.00 0.00 8 1011.6
20260502051512 15 201 0.0 4.8 0.00 0.00 0.00 8 1011.6